Terminal Aerodrome Forecast
Issued by NWS

Home | Current Version | Previous Version | Text Only | Print | Product List | Glossary On
Versions: 1 2 3 4 5 6 7 8 9 10 11 12 13 14 15 16 17 18 19 20 21 22 23 24 25 26
000
FTUS44 KOHX 292300
TAFCKV
TAF
KCKV 292321Z 3000/3024 17005KT P6SM SCT040 BKN250
     FM300800 17003KT P6SM BKN050 BKN100
     FM301100 17004KT 5SM RA BR VCTS BKN050CB
     FM301500 21007KT 4SM TSRA OVC040CB
     FM302100 20008KT 3SM TSRA OVC025CB=

USA.gov is the U.S. government's official web portal to all federal, state and local government web resources and services.